Location: Ethel Rock
(53.4667°N, 4.5667°W)
Time: 04:48:51
(UTC+00:00)

Cosmos 2180 Rocket - Pass Details

Date: 24 October 2020
Orbit: 953 x 1005 km, 82.9° (Epoch: 25 November)

Event Time Altitude Azimuth Distance (km) Brightness Sun altitude
Rises 04:40:46 0° 348° (NNW) 3,721 7.5 -21.7°
Reaches altitude 10° 04:43:20 10° 347° (NNW) 2,760 6.8 -21.3°
Maximum altitude 04:49:37 74° 264° (W) 1,022 4.4 -20.4°
Drops below altitude 10° 04:55:48 10° 180° (S) 2,705 6.8 -19.4°
Sets 04:58:17 0° 179° (S) 3,641 7.5 -19.1°
